Regional Weather Roundup
Issued by NWS

Home | Current Version | Previous Version | Text Only | Print | Product List | Glossary Off
Versions: 1 2 3 4 5 6 7 8 9 10 11 12 13 14 15 16 17 18 19 20 21 22 23 24 25 26 27 28 29 30 31 32 33 34 35 36 37 38 39 40 41 42 43 44 45 46 47 48 49 50

000
ASUS43 KDTX 221301
RWRMI
MICHIGAN HOURLY REGIONAL WEATHER ROUNDUP
NATIONAL WEATHER SERVICE DETROIT/PONTIAC MI
900 AM EDT SAT JUL 22 2017

NOTE: "FAIR" INDICATES FEW OR NO CLOUDS BELOW 12,000 FEET WITH NO
SIGNIFICANT WEATHER AND/OR OBSTRUCTION TO VISIBILITY.

MIZ047>049-052>055-059>063-066>070-074>076-081>083-221400-
SOUTHEAST LOWER MICHIGAN

CITY           SKY/WX    TMP DP  RH WIND       PRES   REMARKS
ADRIAN         HVY RAIN  71  68  90 E3        29.87R FOG
ALMA           CLOUDY    70  66  86 E3        29.84R
ANN ARBOR      MOSUNNY   72  70  93 S6        29.83F
BAD AXE        RAIN      69  68  95 NW3       29.89R
CARO           CLOUDY    68  66  91 E5        29.84S
DETROIT CITY   CLOUDY    77  70  79 S10       29.84S
DETROIT        CLOUDY    74  69  85 SE9       29.82F
FLINT          CLOUDY    72  67  84 S6        29.84S
GROSSE ILE     CLOUDY    74  72  93 NW3       29.86R
HILLSDALE      CLOUDY    70  68  94 SE3       29.87R
HOWELL         CLOUDY    72  69  90 S5        29.85R

CITY           SKY/WX    TMP DP  RH WIND       PRES   REMARKS
JACKSON        CLOUDY    72  69  90 S3        29.85R
LAMBERTVILLE   CLOUDY    72  71  94 SE5       29.84R
LANSING        LGT RAIN  73  67  81 S8        29.83R
LAPEER         CLOUDY    74  62  66 SE7       29.85S
MASON          RAIN      71  69  92 S3        29.85S
MONROE         CLOUDY    74  71  91 SE5       29.84S
MT. CLEMENS    CLOUDY    76  74  94 S6        29.83R
PONTIAC        LGT RAIN  73  68  84 SE5       29.83F
PORT HOPE        N/A     71  69  93 W5        29.86R
PORT HURON     RAIN      75  70  83 S3        29.86R
TRI CITIES     CLOUDY    71  68  90 NE8       29.84S
MIDLAND        CLOUDY    68  65  90 NE6       29.84R
TROY           CLOUDY    77  65  68 CALM      29.86F
SAGINAW HB     CLOUDY    68  64  88 E6        29.84R
$$
MIZ043>046-050>051-056>058-064>065-071>073-077>080-221400-
SOUTHWEST LOWER MICHIGAN

CITY           SKY/WX    TMP DP  RH WIND       PRES   REMARKS
BATTLE CREEK   CLOUDY    73  71  93 S12       29.85R
BENTON HARBOR  CLOUDY    74  70  87 S5        29.82S
BIG RAPIDS     HVY RAIN  66  65  94 NE3       29.83S
COLDWATER      CLOUDY    71  71 100 S5        29.85R
FREMONT        CLOUDY    69  68  96 SE3       29.80F
HOLLAND        PTSUNNY   73  70  90 S6        29.82S
GRAND RAPIDS   CLOUDY    71  70  96 CALM      29.82R
IONIA          CLOUDY    71  69  90 S3        29.83R
KALAMAZOO      CLOUDY    74  69  85 S8        29.84S
LUDINGTON      DRIZZLE   67  66  96 NE3       29.81S
MARSHALL       CLOUDY    72  71  98 S3        29.85R
MUSKEGON       CLOUDY    72  69  90 SE5       29.80S
SOUTH HAVEN    CLOUDY    74  73  95 CALM      29.82R
$$
MIZ016>042-221400-
NORTHERN LOWER MICHIGAN

CITY           SKY/WX    TMP DP  RH WIND       PRES   REMARKS
ALPENA         CLOUDY    71  65  81 SE5       29.87R
BEAVER ISLAND  CLOUDY    71  66  85 CALM      29.85S
BELLAIRE       CLOUDY    71  65  81 CALM      29.85S
CADILLAC       CLOUDY    67  64  90 E6        29.86S
CHARLEVOIX     CLOUDY    71  65  81 CALM      29.87S
FRANKFORT      CLOUDY    71  68  91 E6        29.82S
GAYLORD        CLOUDY    71  63  75 S7        29.87F
GRAYLING       CLOUDY    68  63  85 SE12      29.89S
HARBOR SPRINGS CLOUDY    70  65  84 N3        29.85S
HOUGHTON LAKE  LGT RAIN  67  65  93 E3        29.89F FOG
MANISTEE       CLOUDY    70  65  84 E7        29.81F
OSCODA         CLOUDY    69  67  92 SW10G22   29.87R
PELLSTON       CLOUDY    72  65  78 CALM      29.86S
ROGERS CITY    CLOUDY    69  62  79 E5        29.88R
TRAVERSE CITY  CLOUDY    72  66  81 SE6       29.82F
$$
MIZ007>008-015-221400-
EASTERN UPPER MICHIGAN

CITY           SKY/WX    TMP DP  RH WIND       PRES   REMARKS
KINROSS        PTSUNNY   66  56  70 E8        29.88R
MACKINAC ISLAN CLOUDY    69  62  80 E10G16    29.86R
NEWBERRY       SUNNY     64  59  84 N6        29.87R
S. S. MARIE    CLOUDY    64  54  69 NE6       29.88R
MUNISING         N/A     68  66  93 NE6       29.84R
$$
MIZ004>006-011>014-085-221400-
CENTRAL UPPER MICHIGAN

CITY           SKY/WX    TMP DP  RH WIND       PRES   REMARKS
MANISTIQUE     MOSUNNY   70  67  90 S8        29.85R
ESCANABA         N/A     72  66  81 MISG        N/A
MENOMINEE      CLOUDY    70  63  78 E3        29.84R
SAWYER-GWINN   MOSUNNY   66  63  88 SW7       29.86R
$$
MIZ001>003-009>011-084-221400-
WESTERN UPPER MICHIGAN

CITY           SKY/WX    TMP DP  RH WIND       PRES   REMARKS
IRON MOUNTAIN  CLOUDY    68  61  78 SW3       29.85R
HOUGHTON       MOSUNNY   62  57  83 E7        29.83R
COPPER HARBOR    N/A     64  54  69 SW9G20    29.82S
IRONWOOD       CLOUDY    67  65  93 W5        29.85R
$$

ABBREVIATIONS USED IN REMARKS
   TC - TEMPERATURE IN CELSIUS
  WCI - WIND CHILL INDEX
   HX - HEAT INDEX
  VSB - VISIBILITY





USA.gov is the U.S. government's official web portal to all federal, state and local government web resources and services.